Regional Weather Roundup
Issued by NWS

Home | Current Version | Previous Version | Graphics & Text | Print | Product List | Glossary On
Versions: 1 2 3 4 5 6 7 8 9 10 11 12 13 14 15 16 17 18 19 20 21 22 23 24 25 26 27 28 29 30 31 32 33 34 35 36 37 38 39 40 41 42 43 44 45 46 47 48 49 50
687
ASUS43 KOAX 271002
RWRNE

WEATHER ROUNDUP FOR NEBRASKA
NATIONAL WEATHER SERVICE OMAHA NE
500 AM CDT TUE SEP 27 2016

NOTES: SATELLITE DATA IS BEING USED TO AUGMENT CLOUD COVER ABOVE
       12000 FEET.
       "FAIR" INDICATES FEW OR NO CLOUDS BELOW 12,000 FEET WITH NO
       SIGNIFICANT WEATHER AND/OR OBSTRUCTIONS TO VISIBILITY.

  * THESE STATIONS DO NOT REPORT WEATHER SUCH AS RAIN...SNOW OR FOG.

NEZ001>004-019>022-054>056-271100-
NEBRASKA PANHANDLE

CITY           SKY/WX    TMP DP  RH WIND       PRES   REMARKS
SCOTTSBLUFF    CLOUDY    42  39  89 CALM      30.19F
ALLIANCE       CLOUDY    36  35  96 W5        30.17F WCI  32
CHADRON        CLEAR     40  37  89 S5        30.15F
KIMBALL        CLEAR     43  39  86 W6        30.24S
SIDNEY         CLEAR     42  38  85 NW7       30.21F
$$

NEZ057>060-069>072-079>082-271100-
SOUTHWEST NEBRASKA

CITY           SKY/WX    TMP DP  RH WIND       PRES   REMARKS
NORTH PLATTE   CLEAR     41  38  89 NW3       30.15F
IMPERIAL       CLEAR     47  40  76 NW6       30.17F
LEXINGTON      CLEAR     42  39  89 NW5       30.12F
MCCOOK         CLEAR     48  42  80 W9        30.13F
OGALLALA       CLEAR     41  38  91 W3        30.17F
$$

NEZ005>010-023>029-035>040-094-271100-
NORTH CENTRAL NEBRASKA

CITY           SKY/WX    TMP DP  RH WIND       PRES   REMARKS
VALENTINE      CLEAR     40  36  86 W7        30.12S
AINSWORTH      CLEAR     45  40  83 W7        30.11S
BROKEN BOW     CLOUDY    42  40  92 S3        30.11S
O`NEILL        CLEAR     45  40  85 W3        30.08S
ORD            CLEAR     41  37  86 NW3       30.08F
THEDFORD       CLEAR     42  39  92 W3        30.15S
$$

NEZ041-046>049-061>064-073>077-083>087-271100-
SOUTH CENTRAL NEBRASKA

CITY           SKY/WX    TMP DP  RH WIND       PRES   REMARKS
GRAND ISLAND   CLEAR     49  42  77 W9        30.08F
AURORA         CLEAR     46  44  93 CALM      30.08S FOG
HASTINGS       CLEAR     48  41  76 CALM      30.10S
HEBRON         CLEAR     47  44  90 CALM      30.06F
HOLDREGE       CLEAR     47  42  83 NW6       30.10F
KEARNEY *      CLEAR     48  39  71 W6        30.09F
YORK           CLEAR     48  45  87 CALM      30.07F
$$

NEZ011>018-030>034-042>045-271100-
NORTHEAST NEBRASKA

CITY           SKY/WX    TMP DP  RH WIND       PRES   REMARKS
NORFOLK        CLEAR     46  41  82 W6        30.05F
ALBION         CLEAR     41  39  92 NW5       30.07S
BLAIR          CLEAR     53  46  75 W3        30.04S
FREMONT        CLEAR     47  46  95 W5        30.05S
TEKAMAH        CLEAR     46  42  86 W6        30.03S
WAYNE          CLEAR     42  40  94 CALM      30.05S
$$

NEZ050>053-065>068-078-088>093-271100-
SOUTHEAST NEBRASKA

CITY           SKY/WX    TMP DP  RH WIND       PRES   REMARKS
LINCOLN        CLEAR     47  44  90 N3        30.07F
OMAHA EPPLEY   CLEAR     55  46  71 CALM      30.04S
BEATRICE       CLEAR     46  45  94 CALM      30.05F
FALLS CITY     CLEAR     51  46  83 CALM      30.03F
NEBRASKA CITY  CLEAR     54  37  52 W5        30.04S
PLATTSMOUTH    CLEAR     52  41  66 W5        30.04S
$$

NEZ044-045-051>053-067-271100-
OMAHA AREA

CITY           SKY/WX    TMP DP  RH WIND       PRES   REMARKS
OMAHA EPPLEY   CLEAR     55  46  71 CALM      30.04S
BLAIR          CLEAR     53  46  75 W3        30.04S
FREMONT        CLEAR     47  46  95 W5        30.05S
MILLARD        CLEAR     51  48  92 CALM      30.04S
OFFUTT AFB     CLEAR     48  47  98 CALM      30.03F
PLATTSMOUTH    CLEAR     52  41  66 W5        30.04S
WAHOO          FAIR      47  45  92 CALM      30.05S
$$




USA.gov is the U.S. government's official web portal to all federal, state and local government web resources and services.